Das Wetter in  D-61279 Heinzenberg / Taunus





Wetter Minimum- & Maximum-Werte im Januar 2011

Standort: Heinzenberg / Taunus - Höhe 297 m         8 24' 1" Ost 50 21' 51" Nord
(   3-stündige Aktualisierung    letzte Aktualisierung um 19:04 am 31.01.2011  )


Messgrösse

Minimum

Maximum

Durchschnitt

Temperatur West /
Luftfeuchte West
Anklicken für Monats-Diagramm

-10,7 C

06:12
31.01.2011

57 %

14:25
29.01.2011

12,9 C

14:15
08.01.2011

99 %

01:02
01.01.2011

Temp

1,5 C

Feuchte

92 %

Temperatur Ost /
Luftfeuchte Ost
Anklicken für Monats-Diagramm

-10,8 C

05:57
31.01.2011

--

--
--

12,6 C

14:05
08.01.2011

--

--
--

1,2 C

--

Luftdruck Anklicken für Monats-Diagramm

998,7 hPa

18:28
06.01.2011

1036,0 hPa

09:22
21.01.2011

1020,0 hPa

Taupunkt

-12,0 C

06:12
31.01.2011

10,8 C

15:50
13.01.2011

0,3 C

Windchill
( gefühlte Temperatur )

-16,4 C

04:17
05.01.2011

11,1 C

15:57
16.01.2011

-1,7 C

Windgeschwindigkeit /
Windrichtung
Anklicken für Monats-Diagramm

---

47,7 km/h / W

13:21
25.01.2011

9,4 km/h
W-SW

Helligkeit /
Sonnenschein
Anklicken für Monats-Diagramm
Anklicken für Monats-Diagramm

Sonnenschein:

56:31 Stunden

Max: 7:50 Std am
30.01.2011

51,2 klux

11:35
03.01.2011

10,5 klux

Solarstrahlung Anklicken für Monats-Diagramm

---

350 W/m

11:35
03.01.2011

82 W/m

Regenmenge
    Januar 2011
Anklicken für Monats-Diagramm

Insgesamt 43,2 l/m

in 86:34 Stunden
an 22 Tagen

9,1 l/m

00:00
13.01.2011

Gesamtmenge

43,2 l/m

Regen-Tage
    Januar 2011
Anklicken für Monats-Diagramm

>   0 mm/Tag

>   2 mm/Tag

>   5 mm/Tag

> 10 mm/Tag

> 20 mm/Tag

22 Tage     
8 Tage     
4 Tage     
0 Tage     
0 Tage     

Eisige Tage Januar 2011 / 2010

Tmin ≤ -10C     

  1 Tag

/

5 Tage

Eistage Januar 2011 / 2010

Tmax <     0C     

3 Tage

/

20 Tage

Frosttage Januar 2011 / 2010

Tmin ≤     0C     

20 Tage

/

29 Tage

Kalte Tage Januar 2011 / 2010

Tmax <   10C     

24 Tage

/

31 Tage

Warme Tage Januar 2011 / 2010

Tmax ≥   20C     

0 Tage

/

0 Tage

Sommertage Januar 2011 / 2010

Tmax ≥   25C     

0 Tage

/

0 Tage

Heisse Tage Januar 2011 / 2010

Tmax ≥   30C     

0 Tage

/

0 Tage


Monatsdiagramm Januar 2011

Die Kurven zeigen den Durchschnittswert des jeweiligen Tages an


Wetter-Monatsübersicht Januar 2011
Datum
  Temperatur
   Luftdruck
   Wind
  Regen
   Luftfeuchte
   Helligkeit

Sonnen-
schein


Temp.

Min.
Temp.

Max.
Temp.


Luftdruck

Min.
Luftdruck

Max.
Luftdruck

-Geschw.
Haupt-Richtg.

Max.
Wind

Menge /
Dauer


Feuchte

Min.
Feuchte

Max.
Feuchte


Helligkeit

Max.
Helligkeit

1.
Januar
0,4 C-1,9 C
00:22
1,8 C
13:42
1021,6 hPa1020,0 hPa
13:42
1025,7 hPa
00:02
7,3 km/h
W
27,2 km/h
12:42  
---
4:45 Stunden
99 %97 %
13:32
99 %
01:02
7,7 klux28,3 klux
12:52
10 Min 
2.
Januar
-0,4 C-1,4 C
06:49
1,2 C
13:54
1023,1 hPa1021,2 hPa
00:04
1024,5 hPa
22:30
8,6 km/h
W
25,0 km/h
23:40  
---
35 Minuten
96 %88 %
14:04
99 %
00:04
10,5 klux38,9 klux
12:49
1:30 Std 
3.
Januar
-1,3 C-3,4 C
20:45
1,3 C
14:55
1024,4 hPa1023,6 hPa
18:55
1025,5 hPa
10:20
4,9 km/h
W
19,1 km/h
12:35  
---
95 %85 %
12:35
98 %
06:25
11,3 klux51,2 klux
11:35
1:56 Std 
4.
Januar
-3,5 C-5,1 C
08:51
-0,8 C
15:11
1020,8 hPa1018,7 hPa
20:31
1023,8 hPa
00:01
2,9 km/h
W-SW
22,0 km/h
22:27  
---
25 Minuten
95 %90 %
15:26
98 %
03:36
10,8 klux43,7 klux
11:46
1:45 Std 
5.
Januar
-5,2 C-7,5 C
19:12
-2,6 C
14:27
1014,4 hPa1007,5 hPa
23:23
1018,8 hPa
02:07
6,1 km/h
O-SO
20,5 km/h
04:17  
---
89 %79 %
14:47
93 %
20:52
17,7 klux38,8 klux
12:37
6:00 Std 
6.
Januar
3,2 C-5,7 C
00:53
7,7 C
23:29
1001,4 hPa998,7 hPa
18:28
1007,5 hPa
00:03
23,9 km/h
W-SW
46,0 km/h
18:18  
8,1 l/m
10:20 Stunden
97 %93 %
00:03
99 %
09:23
4,6 klux12,9 klux
11:43
--- 
7.
Januar
8,2 C5,5 C
07:59
10,0 C
23:50
1007,4 hPa1002,7 hPa
00:04
1009,1 hPa
08:14
14,2 km/h
W-SW
40,7 km/h
00:24  
5,6 l/m
6:25 Stunden
98 %95 %
23:30
99 %
02:59
3,3 klux9,6 klux
11:14
--- 
8.
Januar
10,5 C9,3 C
04:45
12,9 C
14:15
1007,7 hPa1006,2 hPa
14:15
1008,6 hPa
04:10
26,6 km/h
W-SW
41,3 km/h
19:40  
0,3 l/m
1:45 Stunden
87 %73 %
17:10
97 %
04:05
17,2 klux39,1 klux
13:55
4:35 Std 
9.
Januar
4,7 C-1,5 C
23:57
10,0 C
05:01
1012,5 hPa1005,6 hPa
07:21
1021,5 hPa
23:57
10,9 km/h
W-SW
36,2 km/h
05:16  
5,0 l/m
6:40 Stunden
94 %85 %
05:41
98 %
22:06
5,8 klux16,7 klux
11:41
--- 
10.
Januar
-1,7 C-3,9 C
09:07
-0,2 C
15:07
1023,0 hPa1019,3 hPa
23:43
1025,7 hPa
11:02
0,1 km/h
N-NO
5,0 km/h
05:17  
---
15 Minuten
99 %98 %
00:02
99 %
00:52
6,0 klux12,8 klux
13:02
--- 
11.
Januar
1,9 C-1,0 C
00:03
4,7 C
23:24
1011,8 hPa1007,3 hPa
15:13
1019,3 hPa
00:03
8,5 km/h
W-SW
28,1 km/h
11:43  
0,5 l/m
2:45 Stunden
95 %87 %
12:53
99 %
09:33
5,2 klux44,1 klux
12:38
15 Min 
12.
Januar
3,9 C2,4 C
06:54
6,5 C
23:55
1016,6 hPa1012,4 hPa
00:04
1019,9 hPa
07:54
18,0 km/h
W-SW
33,3 km/h
02:29  
4,6 l/m
11:01 Stunden
96 %90 %
11:54
99 %
19:59
4,2 klux12,2 klux
13:24
--- 
13.
Januar
10,1 C6,7 C
00:00
11,1 C
19:15
1012,3 hPa1011,6 hPa
15:50
1013,7 hPa
23:30
24,4 km/h
W
36,7 km/h
04:15  
9,1 l/m
16:55 Stunden
99 %98 %
18:15
99 %
00:00
4,1 klux11,1 klux
12:35
--- 
14.
Januar
10,6 C8,6 C
23:56
11,5 C
13:25
1014,9 hPa1013,7 hPa
00:00
1015,8 hPa
09:20
28,0 km/h
W-SW
43,5 km/h
21:45  
0,9 l/m
2:00 Stunden
85 %78 %
12:55
99 %
00:00
6,4 klux20,1 klux
12:15
--- 
15.
Januar
7,6 C6,6 C
07:46
9,1 C
15:01
1023,0 hPa1015,0 hPa
00:01
1026,5 hPa
21:36
18,2 km/h
W-SW
31,6 km/h
00:21  
2,1 l/m
2:25 Stunden
87 %74 %
14:41
97 %
01:11
8,4 klux36,6 klux
10:56
46 Min 
16.
Januar
6,3 C0,3 C
23:23
11,6 C
15:22
1026,5 hPa1025,5 hPa
00:02
1027,8 hPa
08:22
8,4 km/h
W-SW
21,1 km/h
10:17  
---
5 Minuten
86 %72 %
14:17
96 %
23:53
22,7 klux47,2 klux
11:42
7:04 Std 
17.
Januar
0,8 C-2,7 C
08:33
7,2 C
23:44
1025,8 hPa1023,6 hPa
21:33
1026,8 hPa
08:33
2,9 km/h
W-SW
25,7 km/h
21:48  
---
10 Minuten
98 %92 %
23:59
99 %
07:28
12,0 klux27,5 klux
12:03
30 Min 
18.
Januar
6,7 C4,0 C
23:55
10,0 C
14:34
1024,0 hPa1022,0 hPa
14:34
1025,9 hPa
23:55
10,6 km/h
W-SW
27,9 km/h
01:19  
0,2 l/m
2:01 Stunden
89 %81 %
14:29
96 %
22:19
10,6 klux42,8 klux
13:24
1:45 Std 
19.
Januar
2,1 C0,3 C
21:10
4,2 C
14:50
1028,8 hPa1025,9 hPa
00:00
1030,4 hPa
09:15
7,5 km/h
NW
23,3 km/h
03:00  
4,0 l/m
2:56 Stunden
90 %81 %
14:00
98 %
22:05
11,3 klux44,2 klux
14:00
1:15 Std 
20.
Januar
-0,0 C-1,1 C
08:46
1,3 C
14:16
1029,3 hPa1027,5 hPa
00:21
1032,8 hPa
23:47
1,6 km/h
N
12,6 km/h
23:27  
---
50 Minuten
96 %87 %
23:42
99 %
00:46
7,7 klux17,0 klux
10:41
--- 
21.
Januar
-1,1 C-2,2 C
20:17
1,7 C
15:42
1034,3 hPa1032,8 hPa
00:02
1036,0 hPa
09:22
3,1 km/h
N
15,1 km/h
02:27  
---
82 %68 %
14:27
92 %
23:53
18,6 klux44,6 klux
11:37
4:55 Std 
22.
Januar
-1,1 C-2,9 C
21:33
0,9 C
14:28
1031,8 hPa1029,7 hPa
18:08
1033,9 hPa
00:03
0,1 km/h
SO
5,4 km/h
13:33  
---
30 Minuten
91 %80 %
13:33
95 %
08:03
7,6 klux38,0 klux
14:23
10 Min 
23.
Januar
-0,1 C-2,5 C
00:04
1,7 C
14:04
1027,4 hPa1025,2 hPa
15:29
1029,9 hPa
00:04
2,0 km/h
W
12,1 km/h
14:14  
---
3:11 Stunden
97 %94 %
00:04
99 %
18:59
6,5 klux16,7 klux
09:39
20 Min 
24.
Januar
1,5 C0,7 C
04:25
2,2 C
16:00
1024,3 hPa1021,0 hPa
23:51
1026,3 hPa
00:40
6,7 km/h
W-NW
18,3 km/h
12:00  
---
2:30 Stunden
96 %90 %
16:25
99 %
00:00
3,6 klux13,0 klux
12:55
--- 
25.
Januar
1,2 C0,2 C
19:56
1,9 C
00:06
1013,4 hPa1009,6 hPa
13:11
1021,0 hPa
00:01
18,9 km/h
W
47,7 km/h
13:21  
2,9 l/m
8:05 Stunden
97 %91 %
06:26
99 %
14:16
5,0 klux18,0 klux
12:36
--- 
26.
Januar
0,3 C-1,6 C
07:37
2,4 C
13:17
1010,3 hPa1008,5 hPa
13:17
1014,1 hPa
22:17
3,7 km/h
W-SW
18,3 km/h
00:27  
---
95 %88 %
15:37
99 %
08:02
10,2 klux39,1 klux
11:57
20 Min 
27.
Januar
-0,6 C-2,7 C
23:54
0,6 C
13:53
1018,9 hPa1014,1 hPa
00:03
1022,7 hPa
23:54
8,3 km/h
SO
26,2 km/h
12:13  
---
84 %72 %
15:28
96 %
00:03
9,5 klux22,3 klux
12:43
--- 
28.
Januar
-2,3 C-5,8 C
23:55
0,7 C
16:14
1022,9 hPa1022,2 hPa
16:14
1023,8 hPa
08:44
7,8 km/h
NO
22,5 km/h
03:14  
---
82 %74 %
14:09
91 %
22:50
10,3 klux33,6 klux
10:49
1:00 Std 
29.
Januar
-4,4 C-8,4 C
08:45
2,4 C
14:35
1020,9 hPa1017,9 hPa
15:55
1023,2 hPa
02:15
2,2 km/h
SO
18,5 km/h
13:10  
---
83 %57 %
14:25
94 %
05:40
24,1 klux45,1 klux
12:45
7:40 Std 
30.
Januar
-5,6 C-9,8 C
05:21
1,5 C
14:41
1021,3 hPa1019,0 hPa
14:56
1023,4 hPa
23:37
3,2 km/h
SO
10,3 km/h
13:56  
---
84 %67 %
16:26
93 %
10:06
22,8 klux42,7 klux
12:56
7:50 Std 
31.
Januar
-6,7 C-10,7 C
06:12
0,0 C
15:47
1026,0 hPa1023,3 hPa
00:02
1028,7 hPa
23:53
2,3 km/h
SO
9,2 km/h
12:02  
---
88 %75 %
15:57
92 %
09:07
21,4 klux42,7 klux
13:07
6:45 Std 



Januar
2011

Temperatur

  

Luftdruck

  

Wind

  

Regen

  

Luftfeuchte

  

Helligkeit

Sonnen-
schein

Min

Max

Min

Max

Max

Max

Min

Max

Max

Max

1,5 C

-10,7 C

06:12 Uhr
31.01.2011

12,9 C

14:15 Uhr
08.01.2011

1020,0 hPa

998,7 hPa

18:28 Uhr
06.01.2011

1036,0 hPa

09:22 Uhr
21.01.2011

9,4 km/h

W-SW

47,7 km/h

13:21 Uhr
25.01.2011

9,1 l/m

16:55 Stunden
13.01.2011

92 %

57 %

14:25 Uhr
29.01.2011

99 %

01:02 Uhr
01.01.2011

10,5 klux

51,2 klux

11:35 Uhr
03.01.2011

7:50 Std

am
30.01.2011

Gesamt

Gesamt

43,2 l/m

22 Tage
86:34 h

56:31 Std


Wetter-Diagramme Januar 2011     Heinzenberg / Taunus   
TemperaturLuftfeuchte
SolarstrahlungLuftdruck
HelligkeitSonnenschein
RegenmengeRegendauer
Wind-GeschwindigkeitWind-Richtung